sat.trackr.live / text

‹ back to catalog

STARLINK-11703 [DTC]

NORAD 63759 · 2025-089J

PAYLOAD ACTIVE UNKNOWN

§ Identity

Operator
Country
US
Launch date
2025-04-29
Launch site
AFETR
Launch vehicle
Mass (kg)
RCS (m²)

Purposes: comms

External: N2YO · Heavens-Above · Gunter

§ Orbital elements

Epoch: 2026-05-25T03:49:02.637984Z

Period
91.66 min
Inclination
43.0001°
Eccentricity
0.0001408
Mean motion
15.70946338 rev/d
Perigee alt
355.2 km
Apogee alt
357.1 km
Semi-major
6,734.3 km
B*
1.4231e-3
RAAN
191.1752°
Arg perigee
244.6453°
Mean anomaly
115.4269°
Rev number
6,216

§ Raw data

STARLINK-11703 [DTC]1 63759U 25089J   26145.15905831  .00187162  00000+0  14231-2 0  99912 63759  43.0001 191.1752 0001408 244.6453 115.4269 15.70946338 62166

JSON: /api/v1/satellites/63759 · /tle

For live sub-satellite position, see the globe view (requires WebGL).

§ Visibility from observer

Set your observer location to see the next 7 days of passes ≥ 10°. The values pass through the URL so the page stays shareable.

No JS? Fill the form by hand. The geolocation button needs JavaScript.